[[{"header":{"parameterUnit":"m.s-1","parameterCategory":1,"la1":30.2991,"la2":30.254,"lo1":-89.0895,"lo2":-89.0444,"dy":0.0017,"dx":0.0017,"nx":28,"ny":28,"refTime":"2024-05-10T21:00:00:Z","depth":0,"parameterNumber":2,"parameterNumberName":"U-component_of_WINDS"},"data":[0,0,0,0,0,0,0,0,0,0,0,0,0,0,0,0,0,0,0,0,0,0,0,0,0,0,0,0,0,0,0,0,0,0,0,0,0,0,0,0,0,0,0,0,0,0,0,0,0,0,0,0,0,0,0,0,0,0,-6.3823,-6.3823,0,-6.3812,-6.3812,-6.3812,-6.3731,-6.3729,-6.3727,-6.3725,-6.3714,-6.3716,-6.3717,0,0,0,0,0,0,0,0,0,0,0,0,0,-6.3776,-6.3777,-6.3823,-6.3823,-6.3823,-6.3812,-6.3812,-6.3812,-6.3732,-6.3729,-6.3727,-6.3724,-6.3714,-6.3716,-6.3717,0,0,0,0,0,0,0,0,0,0,0,0,0,-6.3784,-6.3777,-6.3823,-6.3781,-6.3777,-6.3812,-6.3812,-6.3812,-6.3732,-6.3729,-6.3726,-6.3723,-6.3713,-6.3715,-6.3718,-6.3791,0,0,-6.3725,-6.3726,0,0,0,0,0,0,0,0,-6.3783,-6.3786,-6.3788,-6.3784,-6.378,-6.377,-6.3791,-6.3805,-6.3733,-6.3749,-6.3725,-6.3722,-6.3735,-6.3735,-6.374,-6.3791,-6.379,-6.3725,-6.3726,-6.3727,-6.3728,0,0,0,0,0,0,0,-6.3783,-6.3786,-6.3819,-6.3788,-6.3783,-6.3764,-6.3762,-6.3793,-6.3759,-6.3748,-6.3742,-6.3742,-6.3732,-6.3738,-6.3739,-6.379,-6.3725,-6.3727,-6.3728,-6.3729,-6.3901,-6.3904,0,0,0,0,0,0,-6.3788,-6.3786,-6.3819,-6.3818,-6.3774,-6.3767,-6.3765,-6.3776,-6.3758,-6.3753,-6.3744,-6.3738,-6.3735,-6.3736,-6.3738,-6.3822,-6.3727,-6.3729,-6.3731,-6.3898,-6.3902,-6.3906,0,0,0,0,0,0,-6.3787,-6.3792,-6.3819,-6.38,-6.3802,-6.3771,-6.3785,-6.3778,-6.3783,-6.3756,-6.3749,-6.3756,-6.3733,-6.3735,-6.3779,-6.3821,-6.373,-6.3733,-6.3895,-6.3899,-6.3904,-6.3992,0,0,0,0,0,0,-6.3786,-6.3792,-6.3819,-6.3802,-6.3804,-6.3859,-6.3787,-6.3779,-6.3787,-6.3779,-6.3765,-6.376,-6.3731,-6.3776,-6.3781,-6.3822,-6.3734,-6.3891,-6.3897,-6.3902,-6.3985,-6.3999,-6.4011,0,0,0,0,0,-6.3785,-6.3844,-6.3821,-6.3825,-6.3837,-6.3862,-6.3863,-6.3829,-6.3791,-6.3818,-6.3801,-6.376,-6.3817,-6.3781,-6.3786,-6.3829,-6.3888,-6.3895,-6.3902,-6.3979,-6.3996,-6.4011,0,0,0,0,0,0,-6.3866,-6.3841,-6.3814,-6.387,-6.3869,-6.3848,-6.3881,-6.3848,-6.3858,-6.3849,-6.3807,-6.3804,-6.3854,-6.3847,-6.3807,-6.39,-6.3845,-6.3854,-6.3902,-6.3918,-6.3931,-6.393,-6.3736,0,0,0,0,0,-6.3891,-6.3913,-6.389,-6.3941,-6.3942,-6.3912,-6.3922,-6.3896,-6.3893,-6.3892,-6.3878,-6.3877,-6.3894,-6.3907,-6.3921,-6.3985,-6.398,-6.4017,-6.4031,-6.4041,-6.4048,-6.4081,-6.4097,-6.3929,-6.3929,-6.3929,0,0,-6.394,-6.393,-6.3946,-6.3957,-6.3953,-6.3977,-6.3912,-6.394,-6.3958,-6.3896,-6.3936,-6.3927,-6.3923,-6.3977,-6.4,-6.3972,-6.4094,-6.4051,-6.4059,-6.406,-6.409,-6.4106,-6.412,-6.3934,-6.3933,-6.3932,0,0,-6.4043,-6.4039,-6.408,-6.4078,-6.4074,-6.4054,-6.4065,-6.405,-6.4041,-6.4081,-6.4036,-6.4057,-6.4088,-6.4087,-6.4091,-6.4198,-6.4161,-6.4205,-6.4271,-6.4304,-6.4317,-6.4328,-6.4365,-6.4378,-6.4212,-6.4213,-6.4213,0,-6.4106,-6.414,-6.4105,-6.4137,-6.4143,-6.4091,-6.4132,-6.4133,-6.4133,-6.4139,-6.4108,-6.4147,-6.4141,-6.4193,-6.422,-6.4226,-6.4235,-6.4203,-6.4318,-6.4329,-6.4339,-6.4373,-6.4387,-6.4218,-6.4217,-6.4216,-6.4216,0,-6.4217,-6.4242,-6.4276,-6.4279,-6.4289,-6.4326,-6.4297,-6.4313,-6.4288,-6.4272,-6.4313,-6.4305,-6.4317,-6.4329,-6.4304,-6.4379,-6.4361,-6.4326,-6.4269,-6.4361,-6.4392,-6.4405,-6.4225,-6.4223,-6.4222,-6.422,0,0,-6.4365,-6.4351,-6.4364,-6.4364,-6.4358,-6.4376,-6.4413,-6.4425,-6.4438,-6.4442,-6.447,-6.4499,-6.4466,-6.4471,-6.4446,-6.4476,-6.456,-6.4436,-6.4435,-6.4457,-6.464,-6.4664,-6.468,-6.4537,-6.4539,-6.4541,-6.4639,0,-6.4462,-6.452,-6.4492,-6.4554,-6.4577,-6.453,-6.4561,-6.456,-6.4548,-6.4566,-6.4552,-6.4572,-6.4529,-6.4531,-6.4558,-6.4543,-6.4595,-6.4537,-6.4561,-6.4562,-6.4559,-6.4697,-6.4722,-6.4815,-6.4652,-6.4654,-6.4655,0,-6.4581,-6.4591,-6.4656,-6.4646,-6.4654,-6.4683,-6.4692,-6.4711,-6.471,-6.4699,-6.4706,-6.4675,-6.471,-6.4658,-6.4705,-6.4666,-6.4675,-6.467,-6.4673,-6.467,-6.4611,-6.4695,-6.4844,-6.4857,-6.4675,-6.4673,-6.4672,0,-6.468,-6.471,-6.4752,-6.4755,-6.4745,-6.4766,-6.4764,-6.476,-6.477,-6.478,-6.4785,-6.4799,-6.4806,-6.4817,-6.4792,-6.4756,-6.4842,-6.4788,-6.4832,-6.4833,-6.4848,-6.4847,-6.4998,-6.4861,-6.4861,-6.4861,-6.486,0,-6.4789,-6.483,-6.4796,-6.4822,-6.4867,-6.4836,-6.4881,-6.4873,-6.4871,-6.4895,-6.4856,-6.4879,-6.4846,-6.4866,-6.4846,-6.4887,-6.4892,-6.4883,-6.4876,-6.4884,-6.4885,-6.4886,-6.4878,-6.4864,-6.4863,-6.4863,-6.4862,0,-6.4905,-6.4884,-6.4927,-6.4916,-6.4915,-6.4948,-6.4938,-6.4962,-6.4949,-6.4979,-6.4984,-6.4963,-6.4985,-6.4962,-6.4982,-6.4969,-6.5023,-6.5009,-6.5023,-6.5018,-6.5063,-6.5058,-6.5216,-6.5235,-6.509,-6.5091,-6.5092,0,-6.4973,-6.5004,-6.4997,-6.501,-6.501,-6.5032,-6.5042,-6.5014,-6.5027,-6.503,-6.5053,-6.5072,-6.5085,-6.5123,-6.5109,-6.5124,-6.5108,-6.5163,-6.511,-6.5117,-6.5106,-6.5103,-6.5105,-6.5172,-6.5174,-6.5175,-6.5177,0,-6.5097,-6.5086,-6.5103,-6.5117,-6.5131,-6.514,-6.5146,-6.516,-6.5131,-6.5147,-6.5169,-6.518,-6.5201,-6.522,-6.5232,-6.5229,-6.5198,-6.5195,-6.5205,-6.5211,-6.5217,-6.5212,-6.5049,-6.519,-6.5188,-6.5187,-6.5187,-6.5186,-6.5189,-6.5214,-6.5214,-6.5234,-6.5237,-6.5244,-6.5266,-6.5256,-6.5274,-6.5289,-6.5273,-6.53,-6.53,-6.5313,-6.5315,-6.5336,-6.5312,-6.5328,-6.5332,-6.5335,-6.5341,-6.5217,-6.5338,-6.5338,-6.5337,-6.5337,-6.5337,0,-6.5309,-6.5307,-6.5326,-6.5337,-6.5354,-6.5326,-6.5332,-6.5347,-6.5372,-6.5375,-6.539,-6.5416,-6.5435,-6.5424,-6.5441,-6.5459,-6.5446,-6.5464,-6.5461,-6.546,-6.5362,-6.535,-6.5475,-6.5475,-6.5475,-6.5475,-6.5475,-6.5475,-6.5372,-6.5413,-6.5403,-6.5445,-6.5443,-6.5469,-6.5476,-6.5483,-6.5485,-6.5516,-6.5532,-6.5526,-6.5524,-6.554,-6.5557,-6.5553,-6.556,-6.5583,-6.5574,-6.5481,-6.5467,-6.5454,-6.5442,-6.5586,-6.5586,-6.5671,-6.5671,-6.5672]},{"header":{"parameterUnit":"m.s-1","parameterCategory":1,"la1":30.2991,"la2":30.254,"lo1":-89.0895,"lo2":-89.0444,"dy":0.0017,"dx":0.0017,"nx":28,"ny":28,"refTime":"2024-05-10T21:00:00:Z","depth":0,"parameterNumber":3,"parameterNumberName":"V-component_of_WINDS"},"data":[0,0,0,0,0,0,0,0,0,0,0,0,0,0,0,0,0,0,0,0,0,0,0,0,0,0,0,0,0,0,0,0,0,0,0,0,0,0,0,0,0,0,0,0,0,0,0,0,0,0,0,0,0,0,0,0,0,0,3.7412,3.7413,0,3.744,3.744,3.7441,3.7466,3.7466,3.7466,3.7467,3.7492,3.7492,3.7492,0,0,0,0,0,0,0,0,0,0,0,0,0,3.738,3.738,3.7412,3.7413,3.7413,3.744,3.744,3.7441,3.7466,3.7466,3.7466,3.7467,3.7491,3.7492,3.7492,0,0,0,0,0,0,0,0,0,0,0,0,0,3.7399,3.738,3.7412,3.7429,3.7431,3.744,3.744,3.7441,3.7466,3.7466,3.7467,3.7467,3.7491,3.7492,3.7492,3.7486,0,0,3.7494,3.7494,0,0,0,0,0,0,0,0,3.7398,3.74,3.7426,3.7428,3.743,3.745,3.7438,3.7456,3.7465,3.7452,3.7467,3.7467,3.7477,3.7479,3.7483,3.7487,3.7488,3.7494,3.7494,3.7495,3.7495,0,0,0,0,0,0,0,3.7397,3.7399,3.7423,3.7426,3.7429,3.7434,3.7438,3.7441,3.7461,3.7453,3.7455,3.7458,3.7478,3.7482,3.7484,3.7489,3.7494,3.7495,3.7495,3.7495,3.7491,3.7491,0,0,0,0,0,0,3.7393,3.7398,3.7422,3.7424,3.7415,3.7435,3.7438,3.7443,3.7462,3.7465,3.7458,3.7459,3.7481,3.7483,3.7485,3.7479,3.7495,3.7495,3.7495,3.7491,3.7491,3.749,0,0,0,0,0,0,3.7392,3.7395,3.7421,3.7412,3.7415,3.7435,3.744,3.7443,3.7447,3.7465,3.7469,3.7459,3.7482,3.7484,3.7486,3.7481,3.7495,3.7496,3.7492,3.7491,3.7491,3.7469,0,0,0,0,0,0,3.7391,3.7395,3.7393,3.7411,3.7416,3.7423,3.7439,3.7443,3.7449,3.7451,3.7467,3.747,3.7482,3.7485,3.7487,3.7482,3.7496,3.7493,3.7492,3.7491,3.747,3.7467,3.7465,0,0,0,0,0,3.739,3.7384,3.7393,3.7395,3.7414,3.7422,3.7425,3.744,3.7448,3.7446,3.7458,3.7469,3.7481,3.7485,3.7487,3.7482,3.7493,3.7492,3.7491,3.7471,3.7468,3.7465,0,0,0,0,0,0,3.7363,3.7387,3.7396,3.7397,3.7408,3.7427,3.7425,3.7436,3.7444,3.7446,3.7463,3.7467,3.7467,3.7475,3.7479,3.7478,3.7489,3.7488,3.7473,3.747,3.7467,3.7465,3.7497,0,0,0,0,0,3.7357,3.7363,3.7383,3.7382,3.7387,3.7405,3.7409,3.742,3.7432,3.7436,3.7448,3.7458,3.7464,3.7467,3.7474,3.7471,3.7475,3.7469,3.7467,3.7464,3.7463,3.7464,3.7461,3.7487,3.7487,3.7487,0,0,3.7345,3.7359,3.7361,3.7377,3.7386,3.7391,3.7408,3.7412,3.7416,3.7436,3.744,3.7449,3.7461,3.7461,3.7462,3.7468,3.7457,3.7463,3.7461,3.7462,3.7462,3.746,3.7458,3.7487,3.7487,3.7487,0,0,3.7326,3.7337,3.7337,3.7347,3.7362,3.7375,3.7375,3.7393,3.74,3.7404,3.7419,3.7424,3.7434,3.7442,3.7448,3.7434,3.7444,3.7435,3.7422,3.7422,3.742,3.7418,3.7414,3.7412,3.7434,3.7434,3.7434,0,3.7308,3.7317,3.7335,3.734,3.7346,3.7366,3.7367,3.7375,3.7391,3.7395,3.7401,3.7416,3.7425,3.7428,3.7425,3.7429,3.7429,3.7433,3.7419,3.7418,3.7416,3.7412,3.741,3.7433,3.7433,3.7433,3.7434,0,3.7295,3.7301,3.73,3.7317,3.7323,3.7325,3.7343,3.7348,3.7359,3.737,3.7375,3.7387,3.7397,3.7399,3.7409,3.7403,3.7407,3.7416,3.7427,3.7412,3.7409,3.7407,3.7431,3.7432,3.7432,3.7433,0,0,3.7258,3.7287,3.7286,3.7294,3.7313,3.7318,3.7321,3.7332,3.7336,3.7346,3.735,3.7359,3.7368,3.7374,3.7386,3.7386,3.7374,3.7395,3.7396,3.7391,3.737,3.7363,3.736,3.7382,3.7382,3.7382,3.7369,0,3.7241,3.725,3.7267,3.727,3.7276,3.7296,3.7299,3.7311,3.7322,3.7328,3.734,3.7347,3.7358,3.7362,3.7363,3.7375,3.737,3.7377,3.7384,3.7385,3.7381,3.7358,3.7351,3.7338,3.7367,3.7367,3.7367,0,3.7223,3.7234,3.7238,3.7258,3.7262,3.7264,3.7276,3.7282,3.7296,3.7305,3.7313,3.7326,3.733,3.7341,3.7347,3.7351,3.7356,3.7362,3.7362,3.7363,3.7375,3.7359,3.7334,3.7332,3.7365,3.7365,3.7365,0,3.7196,3.7212,3.7217,3.7223,3.7247,3.7248,3.7258,3.7273,3.7279,3.7289,3.7294,3.7304,3.7309,3.7317,3.7333,3.7339,3.7337,3.7349,3.7344,3.7344,3.7342,3.7342,3.7318,3.7345,3.7345,3.7345,3.7345,0,3.7176,3.7177,3.7205,3.7208,3.721,3.723,3.7232,3.7243,3.7257,3.7262,3.7279,3.7283,3.7304,3.731,3.7322,3.7326,3.7328,3.7335,3.7338,3.7333,3.7332,3.7336,3.7337,3.7345,3.7345,3.7345,3.7345,0,3.7145,3.7164,3.7171,3.7193,3.7199,3.72,3.7219,3.7222,3.7235,3.7242,3.7244,3.7264,3.7273,3.729,3.7302,3.7311,3.7311,3.7317,3.7307,3.7309,3.7303,3.7303,3.728,3.7278,3.7307,3.7306,3.7306,0,3.7131,3.7133,3.7157,3.7162,3.7172,3.718,3.7187,3.7207,3.7214,3.7231,3.7232,3.7242,3.7252,3.7265,3.728,3.729,3.7296,3.7287,3.7297,3.7293,3.7296,3.7296,3.7296,3.7284,3.7284,3.7284,3.7283,0,3.7104,3.7114,3.7124,3.7138,3.7146,3.7158,3.717,3.7173,3.7196,3.7202,3.7212,3.722,3.7234,3.7244,3.7257,3.7266,3.7278,3.728,3.728,3.7275,3.7269,3.7272,3.7301,3.7281,3.7281,3.7281,3.7281,3.7281,3.7082,3.7085,3.7103,3.7114,3.7125,3.7137,3.7142,3.7156,3.7165,3.7179,3.7191,3.72,3.7215,3.7233,3.7242,3.7249,3.7255,3.7254,3.7254,3.7253,3.7251,3.7268,3.7251,3.7251,3.7251,3.7252,3.7252,0,3.7056,3.7069,3.7079,3.7097,3.7105,3.7118,3.7133,3.7139,3.7147,3.7161,3.717,3.7182,3.7193,3.7209,3.7221,3.7223,3.7229,3.7226,3.7225,3.7228,3.7245,3.7245,3.7221,3.7221,3.7221,3.7221,3.7221,3.7221,3.7044,3.705,3.7062,3.7075,3.7087,3.7098,3.7105,3.7116,3.7127,3.714,3.7149,3.7161,3.7176,3.7189,3.7199,3.7203,3.7207,3.7201,3.7207,3.7223,3.7226,3.7229,3.7229,3.7202,3.7202,3.7189,3.7189,3.7189]}]]